7 * 24
多渠道服务支持
STARLINK-37419(NORAD编号69197)是美国SpaceX公司星链(Starlink)星座的一颗低轨卫星,属于全球卫星互联网项目的组成部分。星链项目旨在通过部署近地轨道卫星星座,为全球尤其是偏远地区提供高速低延迟的互联网接入服务。该卫星运行在约550公里高度的近地轨道,参与构建全球覆盖的卫星通信网络,服务个人及商业用户。作为已大规模部署的星链星座一员,它助力缩小数字鸿沟,但星链项目快速扩张也引发了太空拥堵、天文观测干扰等领域的担忧,SpaceX也在通过轨道调整优化空间安全。
美国
(US)
| 数据来源 | 国际轨道数据 |
| 星历时间: | 2026-06-12T14:07:41+0800 16小时前 查看轨道信息 |
| 半长轴: | 6706.108km |
| 偏心率: | 0.0000342 |
| 轨道倾角: | 53.158° |
| 近地点辐角 | 169.906° |
| 升交点赤经 | 226.840° |
| 平近点角 | 190.197° |
| 近地点: | 327.741km |
| 远地点: | 328.201km |
| 周期: | 91.089分钟 |
| 每日圈数: | 15.80873 |